Hourly Data Report for October 05, 2017

All times are specified in Local Standard Time (LST). Add 1 hour to adjust for Daylight Saving Time where and when it is observed.

VICTORIA GONZALES CS
BRITISH COLUMBIA

48°24'47.896" N
123°19'29.192" W
61.00 m
1018611
71200
WLM

Download Data

Hourly Data (October 2017)
Hourly Data Report for October 5, 2017
Temp Definition
°C
Dew Point Temp Definition
°C
Rel Hum Definition
%
Wind Dir Definition
10's deg

Wind Spd Definition
km/h
Visibility Definition
km
Stn Press Definition
kPa
Hmdx Definition


Wind Chill Definition


Weather Definition


TIME
00:00 10.4 5.3 70 6 8   101.33     LegendNANA
01:00 10.2 6.5 78 5 11   101.35     LegendNANA
02:00 9.4 5.7 78 4 2   101.35     LegendNANA
03:00 8.4 5.9 84 2 4   101.35     LegendNANA
04:00 8.6 4.3 74 3 9   101.36     LegendNANA
05:00 8.7 3.5 70 3 9   101.37     LegendNANA
06:00 8.7 4.0 72 3 16   101.38     LegendNANA
07:00 8.4 4.5 76 5 3   101.42     LegendNANA
08:00 11.2 5.7 69 3 6   101.42     LegendNANA
09:00 13.4 6.2 62 5 5   101.43     LegendNANA
10:00 15.7 6.7 55 4 6   101.42     LegendNANA
11:00 17.7 5.7 45 1 7   101.39     LegendNANA
12:00 18.5 6.4 45 7 7   101.37     LegendNANA
13:00 18.8 5.8 43 8 6   101.32     LegendNANA
14:00 14.6 8.5 67 22 8   101.29     LegendNANA
15:00 13.8 7.4 65 22 6   101.25     LegendNANA
16:00 14.5 5.0 53 23 7   101.20     LegendNANA
17:00 13.9 4.8 54 24 6   101.17     LegendNANA
18:00 12.6 6.9 68 24 16   101.17     LegendNANA
19:00 12.2 6.9 70 24 16   101.16     LegendNANA
20:00 11.1 7.7 80 24 21   101.14     LegendNANA
21:00 11.1 6.9 76 26 13   101.12     LegendNANA
22:00 10.7 6.9 77 25 14   101.11     LegendNANA
23:00 10.8 5.5 70 26 10   101.11     LegendNANA

Notes on Data Quality.

Legend

  • E = Estimated
  • M = Missing
  • NA = Not Available
  • ‡ = Partner data that is not subject to review by the National Climate Archives
Date modified: